Tracking 29059 objects as of 19-Jun-2024
HD Live streaming from Space Station
objects crossing your sky now

OBJECT X

Track OBJECT X now!
10-day predictions


NORAD ID: 56867
Int'l Code: 2023-081X
Perigee: 445.0 km
Apogee: 458.2 km
Inclination: 97.4 °
Period: 93.5 minutes
Semi major axis: 6822 km
RCS: Unknown
Launch date: June 7, 2023
Source: (TBD)
Launch site: Jiuquan Satellite Launch Center, China (JSC)
Your satellite tracking list
Your tracking list is empty




NASA's NSSDC Master Catalog

Two Line Element Set (TLE):
1 56867U 23081X   24170.89662138  .00033015  00000-0  81084-3 0  9999
2 56867  97.3801 248.2331 0009698  36.5922 323.5985 15.40557042 57712
Source of the keplerian elements: AFSPC